Back to catalog

RESURS P5

AliveScienceSSO
NORAD 62430·PAYLOAD·🇷🇺 Russia

Launched Dec 25, 2024 from Baikonur Cosmodrome

Loading…

Next Passes (next 24 hours)

TLE

FreshSource: Space-Track

Epoch: Sep 14, 2026, 13:39 UTC

1 62430U 24250A   26257.56924972  .00002432  00000-0  79912-4 0  9997
2 62430  97.2768 181.3879 0000820 111.0316 249.1014 15.32510926 96231

Track RESURS P5 in real time with AllMySat

Download on the App Store